Location: Apollinopolis Magna
(24.9792°N, 32.8772°E)
Time: 04:11:09
(UTC+00:00)

Cosmos 2263 Rocket - Pass Details

Date: 02 March 2021
Orbit: 825 x 847 km, 71.0° (Epoch: 12 April)

Event Time Altitude Azimuth Distance (km) Brightness Sun altitude
Rises 16:28:00 0° 345° (NNW) 3,359 5.5 -9.1°
Reaches altitude 10° 16:30:28 10° 348° (NNW) 2,425 4.7 -9.7°
Maximum altitude 16:35:59 67° 71° (ENE) 891 2.1 -10.9°
Drops below altitude 10° 16:41:30 10° 154° (SSE) 2,424 4.4 -12.2°
Sets 16:43:56 0° 156° (SSE) 3,358 5.1 -12.7°
